• In Deutschland
  • Länderverzeichnis
  • Für 7 Tage
  • Wassertemperatur
  • Satellitenkarten
  • Wetterkarte
  • Widgets
  • user-avatar
    Anmelden

    Stündliche Wetter Bad Wildbad

    Heute, 21 Juni, Donnerstag

    Zeit Temperatur Niederschläge Wind Luftdruck Luftfeuchtigkeit
    00:00 +19°C° 0 mm 1 m/S 710 mmHg 79%
    01:00 +19°C° 0 mm 1 m/S 710 mmHg 77%
    02:00 +19°C° 0 mm 1 m/S 710 mmHg 80%
    03:00 +18°C° 0 mm 1 m/S 710 mmHg 82%
    04:00 +18°C° 0 mm 1 m/S 709 mmHg 84%
    05:00 +18°C° 0 mm 2 m/S 709 mmHg 83%
    06:00 +19°C° 0 mm 2 m/S 710 mmHg 82%
    07:00 +20°C° 0 mm 3 m/S 710 mmHg 80%
    08:00 +21°C° 0 mm 3 m/S 710 mmHg 72%
    09:00 +22°C° 0 mm 4 m/S 710 mmHg 64%
    10:00 +23°C° 0 mm 5 m/S 710 mmHg 57%
    11:00 +23°C° 0 mm 5 m/S 710 mmHg 56%
    12:00 +23°C° 0 mm 6 m/S 710 mmHg 55%
    13:00 +23°C° 0 mm 6 m/S 710 mmHg 54%
    14:00 +22°C° 0,1 mm 6 m/S 710 mmHg 56%
    15:00 +22°C° 0,1 mm 6 m/S 710 mmHg 57%
    16:00 +21°C° 0,1 mm 6 m/S 710 mmHg 59%
    17:00 +19°C° 0 mm 5 m/S 711 mmHg 59%
    18:00 +17°C° 0 mm 5 m/S 711 mmHg 59%
    19:00 +17°C° 0 mm 4 m/S 711 mmHg 59%
    20:00 +14°C° 0 mm 3 m/S 711 mmHg 60%
    21:00 +12°C° 0 mm 3 m/S 712 mmHg 61%
    22:00 +10°C° 0 mm 2 m/S 712 mmHg 61%
    23:00 +9°C° 0 mm 2 m/S 713 mmHg 65%

    Morgen, 22 Juni, Freitag

    Zeit Temperatur Niederschläge Wind Luftdruck Luftfeuchtigkeit
    00:00 +8°C° 0 mm 2 m/S 713 mmHg 68%
    01:00 +7°C° 0 mm 2 m/S 713 mmHg 72%
    02:00 +8°C° 0 mm 1 m/S 714 mmHg 75%
    03:00 +7°C° 0 mm 1 m/S 714 mmHg 79%
    04:00 +6°C° 0 mm 1 m/S 714 mmHg 82%
    05:00 +6°C° 0 mm 2 m/S 714 mmHg 78%
    06:00 +8°C° 0 mm 2 m/S 714 mmHg 74%
    07:00 +9°C° 0 mm 2 m/S 715 mmHg 70%
    08:00 +10°C° 0 mm 3 m/S 715 mmHg 65%
    09:00 +11°C° 0 mm 3 m/S 715 mmHg 60%
    10:00 +12°C° 0 mm 4 m/S 715 mmHg 56%
    11:00 +13°C° 0 mm 4 m/S 715 mmHg 55%
    12:00 +13°C° 0 mm 4 m/S 715 mmHg 55%
    13:00 +14°C° 0 mm 4 m/S 715 mmHg 55%
    14:00 +14°C° 0 mm 4 m/S 715 mmHg 55%
    15:00 +14°C° 0 mm 4 m/S 715 mmHg 56%
    16:00 +14°C° 0 mm 4 m/S 714 mmHg 56%
    17:00 +14°C° 0,1 mm 3 m/S 714 mmHg 60%
    18:00 +13°C° 0,1 mm 3 m/S 714 mmHg 64%
    19:00 +13°C° 0,1 mm 2 m/S 714 mmHg 68%
    20:00 +12°C° 0 mm 2 m/S 715 mmHg 72%
    21:00 +10°C° 0 mm 1 m/S 715 mmHg 77%
    22:00 +9°C° 0 mm 1 m/S 715 mmHg 82%
    23:00 +8°C° 0 mm 1 m/S 715 mmHg 84%

    übermorgen, 23 Juni, Samstag

    Zeit Temperatur Niederschläge Wind Luftdruck Luftfeuchtigkeit
    00:00 +8°C° 0 mm 1 m/S 715 mmHg 85%
    01:00 +7°C° 0 mm 1 m/S 715 mmHg 87%
    02:00 +7°C° 0 mm 1 m/S 715 mmHg 89%
    03:00 +6°C° 0 mm 1 m/S 715 mmHg 90%
    04:00 +6°C° 0 mm 1 m/S 714 mmHg 91%
    05:00 +7°C° 0 mm 1 m/S 715 mmHg 87%
    06:00 +9°C° 0 mm 1 m/S 715 mmHg 82%
    07:00 +10°C° 0 mm 1 m/S 715 mmHg 78%
    08:00 +12°C° 0 mm 1 m/S 715 mmHg 71%
    09:00 +13°C° 0 mm 2 m/S 715 mmHg 64%
    10:00 +15°C° 0 mm 2 m/S 715 mmHg 56%
    11:00 +16°C° 0 mm 2 m/S 715 mmHg 52%
    12:00 +17°C° 0 mm 2 m/S 715 mmHg 48%
    13:00 +18°C° 0 mm 3 m/S 715 mmHg 44%
    14:00 +18°C° 0 mm 3 m/S 714 mmHg 45%
    15:00 +18°C° 0 mm 3 m/S 714 mmHg 46%
    16:00 +18°C° 0 mm 3 m/S 714 mmHg 47%
    17:00 +17°C° 0 mm 3 m/S 714 mmHg 52%
    18:00 +16°C° 0 mm 3 m/S 714 mmHg 58%
    19:00 +15°C° 0 mm 2 m/S 713 mmHg 63%
    20:00 +14°C° 0 mm 2 m/S 713 mmHg 66%
    21:00 +13°C° 0 mm 1 m/S 713 mmHg 69%
    22:00 +11°C° 0 mm 1 m/S 713 mmHg 71%
    23:00 +11°C° 0 mm 1 m/S 713 mmHg 74%

    24 Juni, Sonntag

    Zeit Temperatur Niederschläge Wind Luftdruck Luftfeuchtigkeit
    00:00 +11°C° 0 mm 1 m/S 713 mmHg 76%
    01:00 +10°C° 0 mm 0 m/S 713 mmHg 78%
    02:00 +9°C° 0 mm 0 m/S 713 mmHg 81%
    03:00 +8°C° 0 mm 0 m/S 712 mmHg 84%
    04:00 +7°C° 0 mm 0 m/S 712 mmHg 87%
    05:00 +10°C° 0 mm 1 m/S 712 mmHg 84%
    06:00 +11°C° 0 mm 1 m/S 712 mmHg 81%
    07:00 +12°C° 0 mm 1 m/S 713 mmHg 77%
    08:00 +13°C° 0 mm 1 m/S 713 mmHg 72%
    09:00 +15°C° 0 mm 2 m/S 713 mmHg 66%
    10:00 +16°C° 0 mm 2 m/S 713 mmHg 61%
    11:00 +17°C° 0 mm 2 m/S 713 mmHg 57%
    12:00 +17°C° 0 mm 2 m/S 713 mmHg 54%
    13:00 +18°C° 0 mm 2 m/S 712 mmHg 51%
    14:00 +18°C° 0 mm 3 m/S 712 mmHg 51%
    15:00 +18°C° 0 mm 3 m/S 712 mmHg 51%
    16:00 +19°C° 0 mm 3 m/S 712 mmHg 51%
    17:00 +18°C° 0 mm 3 m/S 712 mmHg 56%
    18:00 +17°C° 0 mm 3 m/S 712 mmHg 61%
    19:00 +16°C° 0 mm 3 m/S 712 mmHg 66%
    20:00 +14°C° 0 mm 2 m/S 712 mmHg 71%
    21:00 +13°C° 0 mm 2 m/S 712 mmHg 77%
    22:00 +11°C° 0 mm 1 m/S 712 mmHg 82%
    23:00 +10°C° 0 mm 1 m/S 712 mmHg 85%

    25 Juni, Montag

    Zeit Temperatur Niederschläge Wind Luftdruck Luftfeuchtigkeit
    00:00 +10°C° 0 mm 1 m/S 712 mmHg 87%
    01:00 +9°C° 0 mm 1 m/S 712 mmHg 90%
    02:00 +9°C° 0 mm 1 m/S 712 mmHg 90%
    03:00 +8°C° 0 mm 1 m/S 711 mmHg 91%
    04:00 +8°C° 0 mm 1 m/S 711 mmHg 92%
    05:00 +9°C° 0 mm 1 m/S 712 mmHg 88%
    06:00 +11°C° 0 mm 1 m/S 712 mmHg 84%
    07:00 +12°C° 0 mm 2 m/S 712 mmHg 80%
    08:00 +14°C° 0,1 mm 2 m/S 712 mmHg 74%
    09:00 +15°C° 0,1 mm 2 m/S 713 mmHg 67%
    10:00 +17°C° 0,1 mm 3 m/S 713 mmHg 61%
    11:00 +17°C° 0,1 mm 3 m/S 713 mmHg 58%
    12:00 +18°C° 0,1 mm 3 m/S 713 mmHg 55%
    13:00 +19°C° 0,1 mm 3 m/S 713 mmHg 53%
    14:00 +19°C° 0,1 mm 3 m/S 713 mmHg 53%
    15:00 +20°C° 0,1 mm 4 m/S 713 mmHg 53%
    16:00 +20°C° 0,1 mm 4 m/S 713 mmHg 54%
    17:00 +19°C° 0 mm 3 m/S 713 mmHg 58%
    18:00 +19°C° 0 mm 3 m/S 713 mmHg 63%
    19:00 +18°C° 0 mm 2 m/S 713 mmHg 67%
    20:00 +16°C° 0 mm 2 m/S 713 mmHg 72%
    21:00 +15°C° 0 mm 2 m/S 713 mmHg 78%
    22:00 +13°C° 0 mm 2 m/S 713 mmHg 83%
    23:00 +12°C° 0 mm 2 m/S 713 mmHg 85%

    26 Juni, Dienstag

    Zeit Temperatur Niederschläge Wind Luftdruck Luftfeuchtigkeit
    00:00 +12°C° 0 mm 1 m/S 713 mmHg 87%
    01:00 +11°C° 0 mm 1 m/S 712 mmHg 89%
    02:00 +11°C° 0 mm 1 m/S 712 mmHg 90%
    03:00 +10°C° 0 mm 1 m/S 712 mmHg 91%
    04:00 +10°C° 0 mm 1 m/S 712 mmHg 92%
    05:00 +11°C° 0 mm 1 m/S 712 mmHg 87%
    06:00 +13°C° 0 mm 2 m/S 713 mmHg 83%
    07:00 +14°C° 0 mm 2 m/S 713 mmHg 78%
    08:00 +16°C° 0 mm 2 m/S 713 mmHg 70%
    09:00 +18°C° 0 mm 3 m/S 713 mmHg 62%
    10:00 +20°C° 0 mm 3 m/S 713 mmHg 54%
    11:00 +20°C° 0 mm 4 m/S 713 mmHg 51%
    12:00 +21°C° 0 mm 4 m/S 713 mmHg 48%
    13:00 +22°C° 0 mm 4 m/S 713 mmHg 45%
    14:00 +22°C° 0 mm 4 m/S 713 mmHg 46%
    15:00 +22°C° 0 mm 4 m/S 713 mmHg 46%
    16:00 +23°C° 0 mm 4 m/S 713 mmHg 46%
    17:00 +22°C° 0 mm 3 m/S 713 mmHg 52%
    18:00 +21°C° 0 mm 3 m/S 713 mmHg 57%
    19:00 +20°C° 0 mm 2 m/S 713 mmHg 63%
    20:00 +18°C° 0 mm 2 m/S 713 mmHg 67%
    21:00 +16°C° 0 mm 2 m/S 713 mmHg 72%
    22:00 +14°C° 0 mm 1 m/S 713 mmHg 76%
    23:00 +14°C° 0 mm 1 m/S 713 mmHg 78%
    Mehr zeigen